Terminal Aerodrome Forecast
Issued by NWS Springfield, MO

Home | Current Version | Previous Version | Text Only | Print | Product List | Glossary On
Versions: 1 2 3 4 5 6 7 8 9 10 11 12 13 14 15
000
FTUS43 KSGF 311100
TAFSGF
TAF
KSGF 311138Z 3112/0112 35013G21KT P6SM FEW040 BKN060 WS019/01035KT
     FM311400 35015G27KT P6SM BKN030
     FM311900 36014G22KT P6SM SCT035
     FM312300 01007KT P6SM SKC=

USA.gov is the U.S. government's official web portal to all federal, state and local government web resources and services.